www.pogodaiklimat.ru

Погода и климат >> Архив погоды >> Россия >> Краснодарский край >> Горный


ПОГОДА в Горном

  • Прогноз погоды в Горном
  • Монитор погоды в Горном

АРХИВ ПОГОДЫ в Горном

Время (UTC), дата Ветер
(напр.,м/с)
 
Видим.   Явления Облачность Т
(С)
Тd
(С)
f
(%)
Тe
(С)
Тes
(С)
Комфортность P
(гПа)
Po
(гПа)
Тmin
(С)
Tmax
(С)
R
(мм)
R24
(мм)
S
(см)
21 16.03 ЮЗ 5
{10}
10 км слаб. ливневой дождь 10/10 600 м
[Cb cap]
+3.9 +3.4 97 -1 -1 1011.0 971.8
00 17.03 Ю 3
{11}
10 км слаб. ливневой дождь 10/10 600 м
[Cb cap]
+4.2 +3.7 97 0 0 1009.3 970.1
03 17.03 Ю 3 4000 м ливневой дождь 10/10 600 м
[Cb cap]
+4.2 +4.2 100 0 0 1008.6 969.4 +3.9 9
06 17.03 ЮЗ 3
{11}
10 км слаб. ливневой дождь 10/10 600 м
[Cb cap]
+2.7 +2.2 97 -2 -2 1010.1 970.6 +2.7
09 17.03 Ю 5-11
{11}
10 км слаб. ливневой дождь 10/10 600 м
[Cb cap]
+4.5 +1.5 81 -0 -0 1010.0 970.8
12 17.03 Ю 5-11
{13}
10 км слаб. ливневой дождь 10/10 600 м
[Cb cap]
+3.7 +3.0 95 -2 -2 1011.9 972.7
15 17.03 ЮЗ 4
{11}
20 км в посл. час ливневой дождь 8/8 600 м
[Cb cap]
+4.3 +3.4 94 -0 -0 1015.7 976.3 +4.8 15
18 17.03 ЮЗ 3 20 км {ливн. осадки} 9/9 600 м
[Sc diur, vesp]
+4.1 +2.6 90 0 0 1018.4 978.9
21 17.03 ЮЗ 1 20 км в посл. час ливневой дождь 10/10 600 м
[Cb cap]
+1.9 +1.1 94 0 0 1020.1 980.2
00 18.03 ЮЗ 3 10 км слаб. ливневой дождь 10/10 600 м
[Cb cap]
+1.6 +1.6 100 -3 -3 1021.1 981.0
03 18.03 ЮЗ 1
{17}
н/о {ливн. осадки} н/о +1.5 +0.7 94 -0 -0 1021.7 981.7 +1.3 9
06 18.03 штиль 0 20 км {ливн. осадки} 9/9 600 м
[Sc diur, vesp]
+3.6 +0.5 80 +3 +3 1023.2 983.5 +1.1
09 18.03 штиль 0 20 км 8/8 600 м
[Sc diur, vesp]
+8.0 -3.7 43 +8 +11 1022.7 983.5
12 18.03 С 1 20 км 6/4 600 м
[Sc diur, vesp Ac As]
+9.8 -4.9 35 +10 +14 1022.3 983.4
15 18.03 С 1 20 км 3/3 600 м
[Sc diur, vesp]
+7.6 -2.3 49 +7 +7 1023.1 983.9 +10.3
18 18.03 С 2 50 км 1/1 600 м
[Sc diur, vesp]
+5.5 +0.4 70 +3 +3 1023.9 984.3
21 18.03 В 2 50 км ясно +3.9 +0.8 80 +1 +1 1024.0 984.3
00 19.03 С 1 50 км ясно +1.3 +0.5 94 -1 -1 1024.7 984.5
03 19.03 штиль 0 20 км местами туман поземный 1/0
[Ci fib]
-1.4 -1.4 100 -3 -3 1025.2 984.6 -1.4
06 19.03 штиль 0 50 км ясно +3.6 +1.0 83 +3 +9 1024.6 984.7 -1.5
09 19.03 ЮЗ 3 50 км 3/3 600 м
[Sc]
+10.2 -0.2 48 +9 +15 1023.4 984.5
12 19.03 штиль 0 50 км 1/1 600 м
[Sc]
+13.9 -0.1 38 +14 +22 1021.2 982.9
15 19.03 СВ 4 50 км ясно +13.1 -1.4 37 +12 +12 1020.3 981.9 +14.9
18 19.03 С 1 50 км ясно +9.3 +0.8 55 +9 +9 1021.0 982.1
21 19.03 штиль 0 50 км ясно +3.9 +2.9 93 +3 +3 1021.9 982.3
00 20.03 СВ 1 20 км местами туман поземный ясно +2.2 -0.8 81 +1 +1 1022.2 982.3
03 20.03 СВ 2 200 м туман 10/10
[]
+2.8 +2.8 100 -1 -1 1021.7 981.9 +1.8
06 20.03 СВ 1 50 м туман ?/? +3.2 +3.2 100 +1 +1 1021.8 982.0
09 20.03 С 2 50 км {туман} ясно +9.4 +0.7 55 +8 +20 опасность
простуды
1020.2 981.4
12 20.03 СВ 2 50 км {туман} ясно +13.6 +1.7 44 +13 +20 1019.3 981.0
15 20.03 СВ 2 50 км ясно +13.5 +1.3 43 +13 +13 1019.5 981.1 +14.3
18 20.03 штиль 0 50 км ясно +9.2 +0.6 55 +9 +9 1021.1 982.2
21 20.03 ЮЗ 1 50 км ясно +6.3 +1.0 69 +6 +6 1021.9 982.6
00 21.03 ЮЗ 4 50 км 6/0
[Ac cast Ci]
+4.9 +1.5 79 +1 +1 1022.9 983.3
03 21.03 ЮЗ 2 50 км 8/8 600 м
[Sc]
+5.1 +3.2 88 +2 +2 1023.7 984.1 +4.7
06 21.03 ЮЗ 2 50 км 9/9 600 м
[Sc]
+6.6 +2.3 74 +5 +5 1024.9 985.4
09 21.03 ЮЗ 4 50 км 8/8 600 м
[Sc]
+8.0 -0.3 56 +5 +7 1025.3 986.1
12 21.03 З 3
{10}
50 км 8/8 600 м
[Sc]
+8.5 -1.7 49 +6 +8 1025.3 986.1
15 21.03 ЮЗ 5 20 км 4/3 600 м
[Sc diur, vesp Ac lent]
+7.4 -2.1 51 +4 +4 1025.1 985.8 +9.4
18 21.03 ЮЗ 4 20 км 9/8 600 м
[Sc diur, vesp Ac lent]
+6.0 +1.8 74 +2 +2 1026.1 986.6
21 21.03 ЮЗ 4 20 км слаб. ливневой дождь 10/9 600 м
[Cb cap Ac lent]
+6.0 +3.2 82 +2 +2 1025.9 986.4
00 22.03 ЮЗ 1 20 км слаб. ливневой дождь 9/9 600 м
[Cb cap]
+5.2 +4.0 92 +4 +4 1025.6 985.9
03 22.03 ЮЗ 2 20 км в посл. час ливневой дождь 10/10 600 м
[Cb cap]
+4.2 +4.0 99 +1 +1 1025.4 985.6 +4.0 4
06 22.03 ЮЗ 3 50 км 3/3 600 м
[Sc diur, vesp]
+6.0 +0.2 66 +3 +6 1025.4 985.9
09 22.03 ЮЗ 4 50 км 6/6 600 м
[Sc diur, vesp]
+8.9 -0.6 51 +6 +10 1024.4 985.3
12 22.03 Ю 7-11
{12}
50 км 9/3 600 м
[Sc diur, vesp Ac cast Ci fib]
+9.0 -4.3 39 +6 +6 1023.1 984.1
15 22.03 ЮЗ 4
{14}
20 км 10/9 600 м
[Sc diur, vesp Ac lent]
+6.5 -1.0 59 +3 +3 1022.9 983.6 +9.8
18 22.03 ЮЗ 3
{10}
20 км слаб. ливневой дождь 10/10 600 м
[Cb cap]
+5.3 +2.1 80 +2 +2 1023.0 983.4
21 22.03 ЮЗ 6-10
{13}
20 км слаб. ливневой дождь 10/10 600 м
[Cb cap]
+5.7 +2.8 82 +1 +1 1020.2 980.8
00 23.03 Ю 7-14
{17}
20 км слаб. ливневой дождь 10/10 600 м
[Cb cap]
+5.5 +1.0 73 0 0 1017.8 978.5
03 23.03 Ю 5
{15}
10 км слаб. ливневой дождь 10/10 600 м
[Cb cap]
+3.8 +2.8 93 -1 -1 1015.7 976.3 +3.4 4
06 23.03 штиль 0
{15}
500 м ливневой снег {гроза} [диам. отлож. мокр. снега 8 мм] 10/10 300 м
[Cb cap]
+0.1 +0.1 100 -1 -1 1018.1 978.0 +0.1
09 23.03 штиль 0 10 км в посл. час ливневой снег [диам. отлож. мокр. снега 20 мм] 10/10 300 м
[Sc diur, vesp]
0.0 0.0 100 -1 -1 1016.4 976.4
12 23.03 штиль 0 20 км {ливн. осадки} 9/8 600 м
[Sc diur, vesp Ci ing]
+2.3 -0.1 84 +1 +3 1015.2 975.5
15 23.03 штиль 0 500 м ливневой снег 10/10 300 м
[Cb cap]
+0.3 -0.3 96 -1 -1 1016.4 976.4 +3.9 31
18 23.03 штиль 0 500 м туман {ливн. осадки} [диам. гололёда 0 мм] ?/? -0.7 -0.8 99 -2 -2 1017.6 977.4

 

Местоположение метеостанции Горный (Краснодарский край, Россия): широта 44.28 долгота 39.27 высота над уровнем моря 323 м.

В архиве по умолчанию представлена погода в Горном за последнюю неделю. Архивные данные за месяц целиком и за предыдущие месяцы, начиная с января 2011 года, Вы можете получить, выбрав интересующий диапазон дат из раскрывающегося списка и нажав кнопку "Ввод!".


*Определитесь, кто Вы:
робот инопланетянин человек

Внимание! Время в таблицах - всемирное. Для получения местного времени необходимо прибавить поправку, которая равна 3 ч.

Смотрите также архив погоды в соседних городах и на ближайших метеорологических станциях:

Погода в Туапсе (Краснодарский край, Россия) (26 км)
Погода в Магри (Краснодарский край, Россия) (30 км)
Погода в Горячем Ключе (Краснодарский край, Россия) (41 км)
Погода в Лазаревском (Краснодарский край, Россия) (43 км)
Погода в Джубге (Краснодарский край, Россия) (44 км)
Погода в Кичмае (Краснодарский край, Россия) (54 км)
Погода в Солох Ауле (Краснодарский край, Россия) (61 км)
Погода в Шунтуке (Адыгея, Россия) (71 км)
Погода в Белореченске (Краснодарский край, Россия) (72 км)
Погода в Майкопе (Адыгея, Россия) (75 км)

Пояснения к столбцам:

Ветер - указаны скорость ветра в м/с - средняя за 10 мин, порывы в срок и между сроками (в фигурных скобках) и направление, откуда дует ветер: С - северный, СВ - северо-восточный, В - восточный, ЮВ - юго-восточный, Ю - южный, ЮЗ - юго-западный, З - западный, СЗ - северо-западный.
Видимость - горизонтальная дальность видимости в метрах или километрах. При видимости от 1 до 10 км при отсутствии осадков обычно наблюдается дымка, при ухудшении видимости до 1 км и менее - туман. В сухую погоду видимость может ухудшаться дымом, пылью или мглою.
Явления - указаны атмосферные явления, наблюдавшиеся в срок или в последний час перед сроком; фигурными скобками обозначены явления, наблюдавшиеся между сроками (за 1-3 часа до срока); квадратными скобками обозначены град или гололедные отложения с указанием их диаметра в мм.
Облачность - указаны через наклонную черту общая и нижняя облачность в баллах и высота нижней границы облаков в метрах; квадратными скобками обозначены формы облаков: Ci - перистые, Cs - перисто-слоистые, Cc - перисто-кучевые, Ac - высококучевые, As - высокослоистые, Sc - слоисто-кучевые, Ns - слоисто-дождевые, Cu - кучевые, Cb - кучево-дождевые. Подробнее классификацию облаков см. в Атласе облаков (PDF).
T - Температура воздуха - температура, измеренная на высоте 2 м над землей.
Td - Температура точки росы - температура, при понижении до которой содержащийся в воздухе водяной пар достигнет насыщения.
f - Относительная влажность воздуха - влажноcть воздуха, измеренная на высоте 2 м над землей.
Te - Эффективная температура - температура, которую ощущает одетый по сезону человек в тени. Характеристика душности погоды. При расчете учитывается влияние влажности воздуха и скорости ветра на теплоощущения человека.
Tes - Эффективная температура на солнце - температура, которую ощущает человек, с поправкой на солнечный нагрев. Характеристика знойности погоды. Зависит от высоты солнца над горизонтом, облачности и скорости ветра. Ночью, в пасмурную погоду, а также при ветре 12 м/с и более поправка равна нулю.
P - Атмосферное давление - приведенное к уровню моря атмосферное давление.
Po - Атмосферное давление - измеренное на уровне метеостанции атмосферное давление.
Tmin - Минимальная температура - минимум температуры воздуха на высоте 2 м над землей.
Tmax - Максимальная температура - максимум температуры воздуха на высоте 2 м над землей.
R - Количество осадков - Количество выпавших осадков за период времени, мм. При наведении курсора мыши на число - период времени, за который выпало указанное количество осадков.
R24 - Количество осадков - Количество выпавших осадков за 24 часа, мм.
S - Снежный покров - Высота снежного покрова, см. При наведении курсора мыши на число - состояние снежного покрова и степень покрытия местности в баллах.